Regional Weather Roundup
Issued by NWS Jackson, KY

Home | Current Version | Previous Version | Graphics & Text | Print | Product List | Glossary On
Versions: 1 2 3 4 5 6 7 8 9 10 11 12 13 14 15 16 17 18 19 20 21 22 23 24 25 26 27 28 29 30 31 32 33 34 35 36 37 38 39 40 41 42 43 44 45 46 47 48 49 50
000
ASUS43 KJKL 160219
RWRJKL

EAST KENTUCKY HOURLY WEATHER ROUNDUP
NATIONAL WEATHER SERVICE JACKSON KY
1000 PM EDT TUE APR 15 2014

NOTE: "FAIR" INDICATES FEW OR NO CLOUDS BELOW 12,000 FEET WITH
NO SIGNIFICANT WEATHER AND/OR OBSTRUCTIONS TO VISIBILITY.

* THESE REPORTS ARE NOT UNDER NWS QUALITY CONTROL AND MAY NOT
  REPORT WEATHER SUCH AS PRECIPITATION AND FOG.

KYZ079-080-083-085-087-088-110-112-115-119-120-160300
...EASTERN KENTUCKY...

CITY           SKY/WX    TMP DP  RH WIND       PRES   REMARKS
JACKSON        PTCLDY    34  19  54 N5        30.18R WCI  30
LONDON         PTCLDY    36  22  56 N6        30.18R WCI  31
SOMERSET*      CLEAR     34  21  60 NE5       30.21R WCI  30
MONTICELLO*    CLEAR     34  24  67 NE5       30.20R WCI  30
WILLIAMSBURG*  CLEAR     34  25  69 N6        30.18  WCI  29
MIDDLESBORO*   MOCLDY    37  25  61 N6        30.17S WCI  32
HARLAN APT*    CLOUDY    36  25  64 E5        30.16S WCI  32
BLACK MTN*       N/A     21  21 100 N6          N/A  WCI  14
PIKEVILLE APT* CLOUDY    32  19  59 N7        30.18R WCI  26
BIG SANDY*     MOCLDY    33  21  60 N3        30.19R
ASHLAND*       CLEAR     36  19  51 N3        30.22R
MOREHEAD APT*  CLOUDY    36  21  55 N7        30.23R WCI  30
$$

KYZ035-036-041-042-044-050-067-078-099-160300
...CENTRAL KENTUCKY...

CITY           SKY/WX    TMP DP  RH WIND       PRES   REMARKS
MT STERLING*   CLEAR     34  23  64 N6        30.22R WCI  29
FLEMING/MASON* CLEAR     32  19  59 NW3       30.23R
DANVILLE*      CLEAR     32  25  74 NE3       30.21R
RICHMOND*      CLEAR     34  21  60 N3        30.20R
LEXINGTON      CLEAR     33  21  61 N7        30.21R WCI  27
FRANKFORT      CLEAR     35  19  52 N6        30.22R WCI  30
$$

KYZ091>093-OHZ055-061-077-WVZ005-015-034-035-042-160300
...SOUTHERN OHIO/WEST VIRGINIA...

CITY           SKY/WX    TMP DP  RH WIND       PRES   REMARKS
COVINGTON      CLEAR     32  18  56 NW6       30.23R WCI  26
COLUMBUS       MOCLDY    33  15  47 N8        30.21R WCI  26
DAYTON         CLEAR     30  17  58 N5        30.24R WCI  25
WILMINGTON     CLEAR     30  16  56 N6        30.22R WCI  24
HUNTINGTON     MOCLDY    33  19  56 N6        30.20R WCI  28
CHARLESTON     CLOUDY    35  18  49 NW12G21   30.19R WCI  27
PINEVILLE*     CLOUDY    34  24  64 MISG      30.18R
BECKLEY        CLOUDY    28  17  63 NW14G28   30.07R WCI  17
BLUEFIELD      CLOUDY    30  18  60 NW15G25   30.05R WCI  19
$$

VAZ002-007-008-TNZ017-027-036-066-071-160300
...SOUTHWEST VIRGINIA/EAST TENNESSEE...

CITY           SKY/WX    TMP DP  RH WIND       PRES   REMARKS
WISE*          CLOUDY    32  21  64 NW8G18    30.12R WCI  25
ABINGDON*      CLOUDY    34  20  57 N9G21     30.11R WCI  27
BRISTOL        CLOUDY    36  21  54 N14       30.15R WCI  27
KNOXVILLE      MOCLDY    40  24  53 N9        30.14F WCI  34
OAK RIDGE      PTCLDY    39  23  52 NE5       30.17S
CROSSVILLE     CLEAR     35  22  58 N6        30.13R WCI  30
NASHVILLE      CLEAR     39  22  50 N8        30.21R WCI  33
$$

...KEY TO REMARKS...
VSB - VISIBILITY IN MILES
WCI - WIND CHILL INDEX
HX  - HEAT INDEX

$$



USA.gov is the U.S. government's official web portal to all federal, state and local government web resources and services.